FDX351 RCTP-RPLC

Flight info

Callsign FDX351
Flight time 1h 39m
Altitude 38000
Route TINHO1A TINHO B591 TACLE Q11 POTIB DCT SANRO W4 MALIB MALIB5R
Aircraft B77L/H-SDE1E2E3FGHIJ2J3J4J5M1RWXY/LB1D1

Departure

Time 2026-04-30 20:47
Airport Taiwan Taoyuan International Airport (RCTP)

Arrival

Time 2026-04-30 22:26
Airport Clark International Airport / Clark Air Base (RPLC)
Time Latitude Longitude Altitude Speed Heading
2026-04-30 19:59 25.07386 121.23519 89 ft 0 kts 321°
2026-04-30 20:04 25.08771 121.24009 89 ft 0 kts 139°
2026-04-30 20:26 25.08802 121.23980 89 ft 4 kts 139°
2026-04-30 20:26 25.08839 121.23946 89 ft 4 kts 146°
2026-04-30 20:26 25.08862 121.23931 87 ft 4 kts 157°
2026-04-30 20:27 25.08886 121.23921 86 ft 1 kts 164°
2026-04-30 20:36 25.08876 121.23919 88 ft 2 kts 201°
2026-04-30 20:37 25.08860 121.23906 87 ft 4 kts 218°
2026-04-30 20:37 25.08834 121.23881 88 ft 6 kts 223°
2026-04-30 20:37 25.08798 121.23842 87 ft 8 kts 228°
2026-04-30 20:37 25.08755 121.23788 89 ft 11 kts 229°
2026-04-30 20:38 25.08702 121.23720 89 ft 13 kts 229°
2026-04-30 20:38 25.08640 121.23639 90 ft 15 kts 230°
2026-04-30 20:38 25.08571 121.23547 91 ft 17 kts 230°
2026-04-30 20:39 25.08404 121.23339 91 ft 18 kts 229°
2026-04-30 20:39 25.08323 121.23233 91 ft 18 kts 229°
2026-04-30 20:39 25.08242 121.23129 93 ft 18 kts 229°
2026-04-30 20:40 25.08105 121.22959 93 ft 18 kts 228°
2026-04-30 20:40 25.08023 121.22857 94 ft 18 kts 228°
2026-04-30 20:40 25.07940 121.22755 94 ft 18 kts 228°
2026-04-30 20:41 25.07755 121.22512 95 ft 18 kts 228°
2026-04-30 20:41 25.07699 121.22443 95 ft 18 kts 228°
2026-04-30 20:41 25.07594 121.22399 93 ft 18 kts 150°
2026-04-30 20:41 25.07496 121.22365 98 ft 17 kts 236°
2026-04-30 20:42 25.07426 121.22259 96 ft 17 kts 233°
2026-04-30 20:42 25.07346 121.22161 97 ft 17 kts 221°
2026-04-30 20:42 25.07149 121.22264 97 ft 17 kts 139°
2026-04-30 20:43 25.07058 121.22351 98 ft 17 kts 139°
2026-04-30 20:43 25.06969 121.22436 98 ft 17 kts 140°
2026-04-30 20:43 25.06878 121.22521 97 ft 17 kts 139°
2026-04-30 20:44 25.06681 121.22637 98 ft 17 kts 201°
2026-04-30 20:44 25.06564 121.22628 96 ft 18 kts 210°
2026-04-30 20:44 25.06396 121.22430 99 ft 18 kts 232°
2026-04-30 20:45 25.06215 121.22262 98 ft 18 kts 168°
2026-04-30 20:45 25.06122 121.22347 101 ft 18 kts 111°
2026-04-30 20:45 25.06172 121.22470 99 ft 18 kts 53°
2026-04-30 20:46 25.06359 121.22699 98 ft 78 kts 48°
2026-04-30 20:46 25.06957 121.23454 277 ft 164 kts 50°
2026-04-30 20:47 25.08273 121.25130 2842 ft 138 kts 53°
2026-04-30 20:47 25.08955 121.26033 3111 ft 167 kts 52°
2026-04-30 20:48 25.10706 121.28344 3613 ft 226 kts 52°
2026-04-30 20:48 25.11771 121.29727 4080 ft 246 kts 49°
2026-04-30 20:48 25.12999 121.31159 4581 ft 267 kts 45°
2026-04-30 20:48 25.14336 121.32673 5191 ft 283 kts 44°
2026-04-30 20:49 25.15728 121.34250 6090 ft 288 kts 45°
2026-04-30 20:49 25.17138 121.35857 6869 ft 296 kts 45°
2026-04-30 20:49 25.18578 121.37505 7717 ft 299 kts 45°
2026-04-30 20:50 25.21477 121.40835 9612 ft 302 kts 44°
2026-04-30 20:50 25.22939 121.42519 10431 ft 308 kts 43°
2026-04-30 20:50 25.24467 121.44276 10790 ft 332 kts 43°
2026-04-30 20:50 25.26131 121.46188 10997 ft 360 kts 44°
2026-04-30 20:51 25.27930 121.48263 11240 ft 385 kts 44°
2026-04-30 20:51 25.30250 121.53670 12295 ft 411 kts 89°
2026-04-30 20:51 25.29753 121.56781 13247 ft 415 kts 113°
2026-04-30 20:52 25.28210 121.59466 14049 ft 418 kts 136°
2026-04-30 20:52 25.25967 121.61469 14816 ft 418 kts 151°
2026-04-30 20:52 25.20719 121.64305 16345 ft 424 kts 161°
2026-04-30 20:53 25.17957 121.65508 17100 ft 429 kts 162°
2026-04-30 20:53 25.15156 121.66699 17838 ft 434 kts 162°
2026-04-30 20:53 25.12318 121.67918 18546 ft 440 kts 162°
2026-04-30 20:54 25.06579 121.70460 19820 ft 449 kts 161°
2026-04-30 20:54 25.03677 121.71774 20469 ft 453 kts 161°
2026-04-30 20:54 25.00751 121.73109 21088 ft 457 kts 161°
2026-04-30 20:55 24.94822 121.75823 22299 ft 466 kts 161°
2026-04-30 20:55 24.91808 121.77202 22905 ft 470 kts 160°
2026-04-30 20:55 24.88793 121.78582 23667 ft 470 kts 160°
2026-04-30 20:56 24.82724 121.81353 24700 ft 476 kts 160°
2026-04-30 20:56 24.79644 121.82757 25151 ft 481 kts 160°
2026-04-30 20:56 24.73409 121.85597 26113 ft 488 kts 161°
2026-04-30 20:57 24.70263 121.87029 26611 ft 491 kts 161°
2026-04-30 20:57 24.67094 121.88472 27107 ft 495 kts 161°
2026-04-30 20:57 24.63905 121.89922 27594 ft 498 kts 161°
2026-04-30 20:58 24.57445 121.92858 28523 ft 506 kts 161°
2026-04-30 20:58 24.54182 121.94339 28950 ft 509 kts 161°
2026-04-30 20:58 24.50937 121.95812 29378 ft 513 kts 161°
2026-04-30 20:58 24.47594 121.97329 29797 ft 516 kts 161°
2026-04-30 20:59 24.40981 122.00327 30705 ft 517 kts 161°
2026-04-30 20:59 24.37653 122.01731 31121 ft 508 kts 168°
2026-04-30 21:00 24.30804 122.01645 31718 ft 489 kts 203°
2026-04-30 21:00 24.24437 121.99217 32424 ft 488 kts 202°
2026-04-30 21:01 24.17933 121.97153 33572 ft 483 kts 201°
2026-04-30 21:01 24.14717 121.96131 34127 ft 480 kts 202°
2026-04-30 21:01 24.08348 121.94047 35020 ft 476 kts 202°
2026-04-30 21:02 24.05188 121.93014 35538 ft 472 kts 202°
2026-04-30 21:02 24.02048 121.92020 36065 ft 468 kts 202°
2026-04-30 21:02 23.98932 121.91038 36525 ft 465 kts 202°
2026-04-30 21:02 23.95841 121.90036 36934 ft 463 kts 203°
2026-04-30 21:03 23.92750 121.89021 37314 ft 462 kts 203°
2026-04-30 21:03 23.89676 121.88011 37714 ft 460 kts 203°
2026-04-30 21:03 23.86613 121.87008 38097 ft 459 kts 203°
2026-04-30 21:04 23.80452 121.85002 38071 ft 462 kts 202°
2026-04-30 21:04 23.71264 121.82049 38049 ft 456 kts 202°
2026-04-30 21:05 23.65188 121.80092 38058 ft 455 kts 202°
2026-04-30 21:05 23.59131 121.78113 38058 ft 454 kts 204°
2026-04-30 21:06 23.53082 121.76102 38053 ft 456 kts 202°
2026-04-30 21:06 23.46978 121.74197 38057 ft 457 kts 202°
2026-04-30 21:07 23.40849 121.72255 38062 ft 459 kts 202°
2026-04-30 21:07 23.34717 121.70274 38057 ft 461 kts 202°
2026-04-30 21:08 23.28604 121.68287 38041 ft 462 kts 202°
2026-04-30 21:08 23.22440 121.66291 38053 ft 462 kts 202°
2026-04-30 21:09 23.16267 121.64296 38044 ft 463 kts 202°
2026-04-30 21:09 23.10098 121.62298 38045 ft 463 kts 202°
2026-04-30 21:10 23.03937 121.60302 38030 ft 462 kts 202°
2026-04-30 21:10 22.97785 121.58313 38035 ft 461 kts 202°
2026-04-30 21:11 22.91634 121.56356 38035 ft 460 kts 202°
2026-04-30 21:11 22.85496 121.54409 38030 ft 459 kts 202°
2026-04-30 21:12 22.79363 121.52462 38011 ft 459 kts 202°
2026-04-30 21:12 22.73241 121.50517 38025 ft 458 kts 202°
2026-04-30 21:13 22.67129 121.48561 38028 ft 457 kts 204°
2026-04-30 21:13 22.61251 121.46091 38030 ft 453 kts 208°
2026-04-30 21:14 22.55438 121.43469 38023 ft 453 kts 208°
2026-04-30 21:14 22.49620 121.40880 38017 ft 454 kts 208°
2026-04-30 21:15 22.43803 121.38321 38015 ft 455 kts 208°
2026-04-30 21:15 22.37940 121.35753 38018 ft 456 kts 208°
2026-04-30 21:16 22.32043 121.33173 38036 ft 457 kts 208°
2026-04-30 21:16 22.26153 121.30596 38018 ft 457 kts 208°
2026-04-30 21:17 22.20255 121.28018 38019 ft 457 kts 208°
2026-04-30 21:17 22.14357 121.25442 38017 ft 457 kts 208°
2026-04-30 21:18 22.08464 121.22870 38009 ft 457 kts 207°
2026-04-30 21:18 22.02579 121.20304 38008 ft 456 kts 207°
2026-04-30 21:19 21.96702 121.17744 38005 ft 455 kts 207°
2026-04-30 21:19 21.90826 121.15180 38005 ft 455 kts 207°
2026-04-30 21:20 21.84967 121.12623 38007 ft 454 kts 207°
2026-04-30 21:20 21.79106 121.10068 38009 ft 454 kts 207°
2026-04-30 21:21 21.73261 121.07522 37996 ft 453 kts 207°
2026-04-30 21:22 21.64504 121.03713 37999 ft 452 kts 207°
2026-04-30 21:23 21.52830 120.98642 37995 ft 452 kts 207°
2026-04-30 21:23 21.44085 120.94849 37993 ft 452 kts 207°
2026-04-30 21:24 21.38294 120.92340 37992 ft 452 kts 207°
2026-04-30 21:24 21.32470 120.89819 37991 ft 451 kts 207°
2026-04-30 21:25 21.23728 120.86039 37977 ft 451 kts 207°
2026-04-30 21:26 21.15005 120.82271 37987 ft 452 kts 207°
2026-04-30 21:27 21.06233 120.78486 37987 ft 453 kts 207°
2026-04-30 21:27 21.01261 120.76532 37976 ft 458 kts 201°
2026-04-30 21:28 20.91746 120.74953 37987 ft 467 kts 190°
2026-04-30 21:29 20.82032 120.74072 37977 ft 467 kts 191°
2026-04-30 21:30 20.65848 120.72526 37971 ft 467 kts 190°
2026-04-30 21:31 20.49716 120.70984 37971 ft 466 kts 190°
2026-04-30 21:32 20.40023 120.70058 37967 ft 466 kts 189°
2026-04-30 21:32 20.33568 120.69443 37970 ft 465 kts 189°
2026-04-30 21:33 20.23886 120.68521 37968 ft 465 kts 189°
2026-04-30 21:34 20.17428 120.67906 37967 ft 465 kts 189°
2026-04-30 21:34 20.07762 120.66988 37965 ft 464 kts 189°
2026-04-30 21:35 20.01330 120.66377 37960 ft 464 kts 189°
2026-04-30 21:35 19.94944 120.65771 37961 ft 463 kts 189°
2026-04-30 21:36 19.88532 120.65163 37961 ft 462 kts 189°
2026-04-30 21:37 19.75733 120.63952 37957 ft 461 kts 189°
2026-04-30 21:37 19.69348 120.63348 37959 ft 460 kts 189°
2026-04-30 21:38 19.62973 120.62745 37958 ft 460 kts 189°
2026-04-30 21:38 19.56605 120.62144 37940 ft 460 kts 189°
2026-04-30 21:39 19.50228 120.61542 37957 ft 460 kts 189°
2026-04-30 21:39 19.43849 120.60940 37953 ft 460 kts 189°
2026-04-30 21:40 19.37463 120.60339 37954 ft 461 kts 189°
2026-04-30 21:40 19.31065 120.59736 37950 ft 462 kts 189°
2026-04-30 21:41 19.24667 120.59135 37951 ft 462 kts 189°
2026-04-30 21:41 19.18252 120.58532 37948 ft 463 kts 189°
2026-04-30 21:42 19.11838 120.57930 37949 ft 463 kts 189°
2026-04-30 21:42 19.05427 120.57328 37948 ft 463 kts 189°
2026-04-30 21:43 18.99013 120.56727 37930 ft 463 kts 189°
2026-04-30 21:43 18.92585 120.56125 37955 ft 463 kts 189°
2026-04-30 21:44 18.86164 120.55523 37936 ft 464 kts 189°
2026-04-30 21:44 18.79730 120.54921 37934 ft 464 kts 189°
2026-04-30 21:45 18.73298 120.54320 37926 ft 464 kts 189°
2026-04-30 21:45 18.66853 120.53719 37931 ft 465 kts 189°
2026-04-30 21:46 18.60418 120.53118 37908 ft 465 kts 189°
2026-04-30 21:46 18.53972 120.52517 37914 ft 465 kts 189°
2026-04-30 21:47 18.47579 120.51921 37914 ft 464 kts 189°
2026-04-30 21:47 18.41136 120.51322 37897 ft 464 kts 189°
2026-04-30 21:48 18.34712 120.50724 37894 ft 464 kts 189°
2026-04-30 21:48 18.28289 120.50127 37902 ft 463 kts 189°
2026-04-30 21:49 18.21873 120.49531 37908 ft 463 kts 189°
2026-04-30 21:49 18.15459 120.48935 37915 ft 462 kts 189°
2026-04-30 21:50 18.09060 120.48341 37910 ft 462 kts 189°
2026-04-30 21:50 18.02645 120.47747 37905 ft 463 kts 189°
2026-04-30 21:51 17.96227 120.47152 37903 ft 463 kts 189°
2026-04-30 21:51 17.89800 120.46557 37899 ft 464 kts 189°
2026-04-30 21:52 17.83371 120.45962 37902 ft 464 kts 189°
2026-04-30 21:52 17.76930 120.45367 37900 ft 464 kts 189°
2026-04-30 21:53 17.70491 120.44772 37904 ft 465 kts 189°
2026-04-30 21:53 17.64041 120.44177 37903 ft 465 kts 189°
2026-04-30 21:54 17.57590 120.43582 37906 ft 466 kts 189°
2026-04-30 21:54 17.51171 120.42990 37902 ft 466 kts 189°
2026-04-30 21:55 17.44727 120.42397 37916 ft 465 kts 189°
2026-04-30 21:55 17.38272 120.41803 37919 ft 465 kts 189°
2026-04-30 21:56 17.31832 120.41211 37922 ft 465 kts 189°
2026-04-30 21:56 17.25386 120.40618 37923 ft 465 kts 189°
2026-04-30 21:57 17.18942 120.40026 37930 ft 464 kts 189°
2026-04-30 21:57 17.12506 120.39436 37928 ft 464 kts 189°
2026-04-30 21:58 17.06072 120.38846 37931 ft 464 kts 189°
2026-04-30 21:58 16.99633 120.38255 37936 ft 464 kts 189°
2026-04-30 21:59 16.93186 120.37665 37929 ft 464 kts 189°
2026-04-30 22:00 16.83535 120.36782 37941 ft 464 kts 189°
2026-04-30 22:00 16.73869 120.35965 37951 ft 466 kts 185°
2026-04-30 22:01 16.67368 120.36446 37952 ft 472 kts 176°
2026-04-30 22:01 16.64097 120.36925 37457 ft 479 kts 176°
2026-04-30 22:01 16.60810 120.37385 36702 ft 468 kts 176°
2026-04-30 22:02 16.57652 120.37820 35983 ft 449 kts 176°
2026-04-30 22:02 16.54555 120.38237 35005 ft 452 kts 176°
2026-04-30 22:02 16.51410 120.38651 33984 ft 456 kts 176°
2026-04-30 22:02 16.48264 120.39064 32871 ft 455 kts 176°
2026-04-30 22:03 16.45187 120.39470 31787 ft 449 kts 175°
2026-04-30 22:03 16.42079 120.39882 30737 ft 442 kts 175°
2026-04-30 22:03 16.39085 120.40279 29667 ft 437 kts 175°
2026-04-30 22:03 16.36044 120.40682 28476 ft 431 kts 175°
2026-04-30 22:04 16.33090 120.41073 27369 ft 426 kts 175°
2026-04-30 22:04 16.30171 120.41460 26299 ft 420 kts 175°
2026-04-30 22:04 16.24481 120.42213 24256 ft 409 kts 174°
2026-04-30 22:05 16.21632 120.42592 23233 ft 404 kts 174°
2026-04-30 22:05 16.18903 120.42954 22114 ft 399 kts 174°
2026-04-30 22:05 16.16154 120.43317 20933 ft 400 kts 174°
2026-04-30 22:05 16.13374 120.43681 19651 ft 406 kts 174°
2026-04-30 22:06 16.10558 120.44050 18487 ft 408 kts 173°
2026-04-30 22:06 16.04938 120.44790 16080 ft 405 kts 173°
2026-04-30 22:06 16.02162 120.45158 14988 ft 401 kts 172°
2026-04-30 22:07 15.99408 120.45523 14012 ft 395 kts 172°
2026-04-30 22:07 15.96704 120.45880 13017 ft 388 kts 172°
2026-04-30 22:07 15.94046 120.46231 12051 ft 382 kts 172°
2026-04-30 22:07 15.91447 120.46574 11125 ft 377 kts 172°
2026-04-30 22:08 15.88855 120.46916 10461 ft 376 kts 171°
2026-04-30 22:08 15.86268 120.47258 10236 ft 374 kts 171°
2026-04-30 22:08 15.83696 120.47597 10067 ft 373 kts 171°
2026-04-30 22:08 15.81129 120.47935 9952 ft 373 kts 171°
2026-04-30 22:09 15.78558 120.48275 9926 ft 372 kts 171°
2026-04-30 22:09 15.75992 120.48613 9932 ft 371 kts 171°
2026-04-30 22:09 15.73422 120.48952 9931 ft 371 kts 171°
2026-04-30 22:09 15.70863 120.49288 9927 ft 371 kts 172°
2026-04-30 22:10 15.68264 120.49631 9952 ft 379 kts 172°
2026-04-30 22:10 15.65694 120.49965 9928 ft 365 kts 172°
2026-04-30 22:10 15.63228 120.50279 9836 ft 349 kts 172°
2026-04-30 22:10 15.60878 120.50579 9724 ft 334 kts 172°
2026-04-30 22:11 15.56429 120.51150 9483 ft 313 kts 171°
2026-04-30 22:11 15.54295 120.51425 9424 ft 304 kts 171°
2026-04-30 22:11 15.52240 120.51689 9323 ft 292 kts 171°
2026-04-30 22:12 15.50229 120.51948 8898 ft 290 kts 171°
2026-04-30 22:12 15.48248 120.52203 8649 ft 283 kts 171°
2026-04-30 22:12 15.46961 120.52368 8527 ft 279 kts 171°
2026-04-30 22:12 15.45052 120.52616 8397 ft 275 kts 171°
2026-04-30 22:13 15.42509 120.52950 8223 ft 274 kts 171°
2026-04-30 22:13 15.41263 120.53113 8146 ft 273 kts 171°
2026-04-30 22:13 15.39390 120.53358 8056 ft 270 kts 171°
2026-04-30 22:13 15.37527 120.53602 7886 ft 270 kts 171°
2026-04-30 22:14 15.35667 120.53845 7770 ft 269 kts 171°
2026-04-30 22:14 15.33814 120.54087 7639 ft 268 kts 171°
2026-04-30 22:14 15.31959 120.54330 7506 ft 268 kts 171°
2026-04-30 22:14 15.30108 120.54572 7391 ft 269 kts 170°
2026-04-30 22:15 15.28250 120.54814 7247 ft 269 kts 170°
2026-04-30 22:15 15.26386 120.55058 7139 ft 270 kts 170°
2026-04-30 22:15 15.24520 120.55303 7038 ft 270 kts 170°
2026-04-30 22:15 15.22662 120.55545 6917 ft 269 kts 170°
2026-04-30 22:16 15.20799 120.55787 6818 ft 266 kts 170°
2026-04-30 22:16 15.18998 120.56046 6632 ft 261 kts 165°
2026-04-30 22:17 15.14420 120.58989 6353 ft 261 kts 144°
2026-04-30 22:17 15.12892 120.60022 6258 ft 261 kts 144°
2026-04-30 22:17 15.09857 120.62082 5453 ft 258 kts 144°
2026-04-30 22:18 15.08340 120.63071 5226 ft 262 kts 150°
2026-04-30 22:18 15.04825 120.62845 5023 ft 256 kts 202°
2026-04-30 22:19 15.01980 120.61634 4969 ft 191 kts 196°
2026-04-30 22:19 15.00791 120.61167 4956 ft 175 kts 195°
2026-04-30 22:19 14.98548 120.60283 5017 ft 174 kts 201°
2026-04-30 22:20 14.97715 120.59401 4984 ft 188 kts 255°
2026-04-30 22:20 14.98770 120.57159 4708 ft 175 kts 329°
2026-04-30 22:20 14.99631 120.56299 4454 ft 169 kts 312°
2026-04-30 22:21 15.00360 120.55378 4281 ft 163 kts 317°
2026-04-30 22:21 15.01136 120.54527 4132 ft 162 kts 317°
2026-04-30 22:21 15.01904 120.53670 3980 ft 162 kts 317°
2026-04-30 22:21 15.02666 120.52809 3816 ft 163 kts 316°
2026-04-30 22:22 15.03424 120.51947 3649 ft 164 kts 317°
2026-04-30 22:22 15.04316 120.51275 3421 ft 151 kts 354°
2026-04-30 22:22 15.05339 120.51416 3300 ft 147 kts 26°
2026-04-30 22:22 15.06304 120.51672 3070 ft 144 kts 12°
2026-04-30 22:23 15.07288 120.51856 2914 ft 147 kts 19°
2026-04-30 22:23 15.08269 120.52164 2676 ft 144 kts 24°
2026-04-30 22:23 15.09196 120.52514 2443 ft 140 kts 25°
2026-04-30 22:23 15.10097 120.52867 2259 ft 141 kts 24°
2026-04-30 22:24 15.11009 120.53229 2058 ft 141 kts 24°
2026-04-30 22:24 15.11928 120.53595 1823 ft 141 kts 24°
2026-04-30 22:24 15.12843 120.53959 1610 ft 140 kts 24°
2026-04-30 22:24 15.13756 120.54321 1398 ft 141 kts 24°
2026-04-30 22:25 15.14677 120.54689 1184 ft 142 kts 22°
2026-04-30 22:25 15.15597 120.55067 956 ft 143 kts 21°
2026-04-30 22:25 15.16529 120.55434 680 ft 141 kts 19°
2026-04-30 22:25 15.17449 120.55795 530 ft 142 kts 19°
2026-04-30 22:26 15.18995 120.56402 452 ft 79 kts 21°
2026-04-30 22:26 15.19390 120.56556 434 ft 55 kts 21°
2026-04-30 22:26 15.19641 120.56556 423 ft 28 kts 295°
2026-04-30 22:27 15.19671 120.56397 427 ft 20 kts 247°
2026-04-30 22:27 15.19552 120.56327 433 ft 20 kts 202°
2026-04-30 22:27 15.19298 120.56215 433 ft 19 kts 221°
2026-04-30 22:28 15.19403 120.56116 437 ft 13 kts 359°
2026-04-30 22:28 15.19493 120.56134 433 ft 13 kts 20°
2026-04-30 22:29 15.19547 120.56154 431 ft 0 kts 21°